Hourly Data Report for October 12, 2004

SHERBROOKE A
QUEBEC

45°26'00.000" N
71°41'00.000" W
241.40 m
7028124
71610
YSC

Download Data

Hourly Data (October 2004)
Hourly Data Report for October 12, 2004
TIME
LST
Temp Definition
°C
Dew Point Definition
°C
Rel Hum Definition
%
Precip. Amount Definition
mm

Wind Dir Definition
10's deg

Wind Spd Definition
km/h
Visibility Definition
km
Stn Press Definition
kPa
Hmdx Definition


Wind Chill Definition


Weather Definition


00:00 6.6 3.8 82   33 11 15.0 98.49      
01:00 6.7 3.9 82   33 9 15.0 98.43      
02:00 6.4 4.2 86   32 20 15.0 98.35      
03:00 6.3 4.0 85   32 15 15.0 98.29      
04:00 6.1 3.7 85   31 17 15.0 98.23      
05:00 5.8 3.4 85   32 17 15.0 98.17      
06:00 5.8 3.5 85   31 19 15.0 98.10      
07:00 6.0 3.4 83   32 13 19.3 98.06     Cloudy
08:00 6.4 3.4 81   32 17 19.3 98.01     Cloudy
09:00 6.8 3.3 78   32 17 24.1 97.96     Cloudy
10:00 7.2 3.2 76   32 11 19.3 97.91     Cloudy
11:00 8.1 2.9 70   32 22 24.1 97.83     Cloudy
12:00 9.2 3.0 65   32 20 24.1 97.79     Mostly Cloudy
13:00 10.1 3.6 64   29 20 24.1 97.73     Mostly Cloudy
14:00 10.7 2.5 57   31 20 15.0 97.68      
15:00 10.7 1.4 53   30 22 24.1 97.64     Mostly Cloudy
16:00 10.8 1.5 53   30 19 24.1 97.63     Mainly Clear
17:00 10.9 0.8 50   26 9 15.0 97.60      
18:00 9.6 0.1 51   25 7 15.0 97.64      
19:00 9.3 0.7 55   24 9 15.0 97.64      
20:00 8.6 1.6 61   25 11 15.0 97.62      
21:00 6.5 1.8 72   27 4 15.0 97.62      
22:00 4.0 0.6 78   27 6 15.0 97.58      
23:00 3.1 0.6 84   22 9 15.0 97.56      

Notes on Data Quality.

Legend

  • E = Estimated
  • M = Missing
  • NA = Not Available*
  • [empty] = Indicates an unobserved value
Date modified: